Location: Roland
(31.1349°N, 85.4372°W)
Time: 22:33:41
(UTC+00:00)

Tiros 1 - Pass Details

Date: 26 April 2021
Orbit: 630 x 664 km, 48.4° (Epoch: 05 May)

Event Time Altitude Azimuth Distance (km) Brightness Sun altitude
Rises 10:20:20 0° 196° (SSW) 2,960 10.2 -9.2°
Reaches altitude 10° 10:23:05 10° 181° (S) 2,046 9.5 -8.6°
Maximum altitude 10:26:45 22° 130° (SE) 1,391 9.2 -7.9°
Drops below altitude 10° 10:30:23 10° 79° (E) 2,037 11.4 -7.2°
Sets 10:33:06 0° 65° (ENE) 2,943 13.1 -6.6°
